Regional Weather Roundup
Issued by NWS

Home | Current Version | Previous Version | Graphics & Text | Print | Product List | Glossary On
Versions: 1 2 3 4 5 6 7 8 9 10 11 12 13 14 15 16 17 18 19 20 21 22 23 24 25 26 27 28 29 30 31 32 33 34 35 36 37 38 39 40 41 42 43 44 45 46 47 48 49 50
000
ASUS45 KABQ 280601
RWRNM
NEW MEXICO REGIONAL WEATHER ROUNDUP
NATIONAL WEATHER SERVICE ALBUQUERQUE NM
1200 AM MDT TUE JUL 28 2015

NOTE: "FAIR" MEANS FEW OR NO CLOUDS BELOW 12,000 FEET AGL WITH NO
       SIGNIFICANT WEATHER OR OBSTRUCTIONS TO VISION.

      THIS PRODUCT IS RELEASED AS TWO VERSIONS.  ONE VERSION NEAR
      THE TOP OF THE HOUR CONTAINING PRELIMINARY DATA FROM ALBUQUERQUE
      AND OTHER STATIONS.  A FINAL VERSION WITH ADDITIONAL DATA IS
      ISSUED ABOUT 10 MINUTES AFTER THE HOUR.

NMZ501-503-504-510>518-280700-
NORTHWEST PLATEAU/NORTHCENTRAL MOUNTAINS

CITY           SKY/WX    TMP DP  RH WIND       PRES   REMARKS
FARMINGTON     CLEAR     70  26  19 CALM      30.06R
6HR MIN TEMP:  64; 6HR MAX TEMP:  93;

SANTA FE         N/A     70  50  49 E6        30.16R
6HR MIN TEMP:  70; 6HR MAX TEMP:  87;

TAOS           CLEAR     57  41  54 CALM      30.22R

$$
NMZ402-403-502-505>509-280700-
WESTCENTRAL MOUNTAINS/SOUTHWEST MOUNTAINS

CITY           SKY/WX    TMP DP  RH WIND       PRES   REMARKS
GALLUP         MOCLDY    65  37  35 NE5       30.19R
6HR MIN TEMP:  63; 6HR MAX TEMP:  88;

SILVER CITY      N/A     73  45  35 N8        30.14R

$$
NMZ407-409-411-412-280700-
SOUTHERN DESERTS

CITY           SKY/WX    TMP DP  RH WIND       PRES   REMARKS
DEMING         MOCLDY    79  48  33 W3        30.03R
6HR MIN TEMP:  79; 6HR MAX TEMP:  96;

ALAMOGORDO     MOCLDY    81  52  36 S7        30.03R
T OR C         MOCLDY    79  54  41 W7        30.04R
6HR MIN TEMP:  79; 6HR MAX TEMP:  88;


$$
NMZ519>523-280700-
CENTRAL VALLEYS/CENTRAL HIGHLANDS

CITY           SKY/WX    TMP DP  RH WIND       PRES   REMARKS
ALBUQUERQUE    PTCLDY    78  50  37 SE5       30.08S
6HR MIN TEMP:  78; 6HR MAX TEMP:  92;

DOUBLE EAGLE   MOCLDY    73  53  50 SW7       30.12S
CLINES CORNERS NOT AVBL
BELEN          FAIR      76  59  54 CALM      30.07R
6HR MIN TEMP:  76; 6HR MAX TEMP:  91;

SOCORRO        NOT AVBL

$$
NMZ524>526-539-540-280700-
SOUTHCENTRAL MOUNTAINS

CITY           SKY/WX    TMP DP  RH WIND       PRES   REMARKS
RUIDOSO          N/A    N/A N/A N/A MISG        N/A

$$
NMZ527>531-280700-
NORTHEAST HIGHLANDS/NORTHEAST PLAINS

CITY           SKY/WX    TMP DP  RH WIND       PRES   REMARKS
LAS VEGAS      MOCLDY    63  51  65 S13       30.20S
6HR MIN TEMP:  62; 6HR MAX TEMP:  79;

RATON          PTCLDY    65  52  62 NW6       30.11R
6HR MIN TEMP:  64; 6HR MAX TEMP:  86;

CLAYTON        CLEAR     69  58  67 S10       30.03S
6HR MIN TEMP:  69; 6HR MAX TEMP:  91;


$$
NMZ532>537-280700-
EASTCENTRAL PLAINS

CITY           SKY/WX    TMP DP  RH WIND       PRES   REMARKS
TUCUMCARI      CLOUDY    85  52  32 S24G38    29.97S
6HR MIN TEMP:  81; 6HR MAX TEMP:  96;

CANNON AFB     CLOUDY    74  61  62 NW13      30.06F
6HR MIN TEMP:  74; 6HR MAX TEMP:  92;

CLOVIS AIRPORT MOCLDY    75  57  53 W13       30.07S

$$
NMZ028-029-538-280700-
SOUTHEAST PLAINS

CITY           SKY/WX    TMP DP  RH WIND       PRES   REMARKS
ROSWELL        PTCLDY    82  57  42 S5        29.97R
6HR MIN TEMP:  82; 6HR MAX TEMP: 102;

ARTESIA        PTCLDY    84  59  42 S7        29.97R
CARLSBAD       MOCLDY    83  58  42 S7        29.95R
6HR MIN TEMP:  83; 6HR MAX TEMP:  99;

HOBBS          PTCLDY    79  57  47 SE8       30.01S


$$


USA.gov is the U.S. government's official web portal to all federal, state and local government web resources and services.